Regional Weather Roundup
Issued by NWS

Home | Current Version | Previous Version | Text Only | Print | Product List | Glossary On
Versions: 1 2 3 4 5 6 7 8 9 10 11 12 13 14 15 16 17 18 19 20 21 22 23 24 25 26 27 28 29 30 31 32 33 34 35 36 37 38 39 40 41 42 43 44 45 46 47 48 49 50
000
ASUS43 KDTX 010410
RWRMI
MICHIGAN HOURLY REGIONAL WEATHER ROUNDUP
NATIONAL WEATHER SERVICE DETROIT/PONTIAC MI
1200 AM EDT THU SEP 01 2016

NOTE: "FAIR" INDICATES FEW OR NO CLOUDS BELOW 12,000 FEET WITH NO
SIGNIFICANT WEATHER AND/OR OBSTRUCTION TO VISIBILITY.

MIZ047>049-052>055-059>063-066>070-074>076-081>083-010500-
SOUTHEAST LOWER MICHIGAN

CITY           SKY/WX    TMP DP  RH WIND       PRES   REMARKS
ADRIAN         CLEAR     60  58  92 NE5       30.06S
ALMA           CLEAR     60  57  88 NW8       30.09S
ANN ARBOR      CLEAR     56  56 100 CALM      30.05S
BAD AXE        CLEAR     55  54  94 CALM      30.06S
CARO           CLOUDY    61  61  97 CALM      30.05S
DETROIT CITY   CLEAR     65  55  70 N3        30.04S
DETROIT        PTCLDY    65  55  70 NE6       30.05R
FLINT          CLOUDY    60  57  89 CALM      30.06S
GROSSE ILE     CLEAR     66  54  64 N6        30.04R
HILLSDALE      CLEAR     58  56  94 CALM      30.06S
HOWELL         PTCLDY    60  57  89 CALM      30.06S

CITY           SKY/WX    TMP DP  RH WIND       PRES   REMARKS
JACKSON        CLEAR     58  58 100 NW3       30.07R
LAMBERTVILLE   CLEAR     64  58  83 CALM      30.05R
LANSING        CLEAR     63  54  72 N5        30.08R
LAPEER         MOCLDY    58  57  97 CALM      30.06S
MASON          PTCLDY    60  57  92 CALM      30.07S
MONROE         CLEAR     59  58  97 W6        30.04S
MT. CLEMENS    CLEAR     61  54  78 NW6       30.02F
PONTIAC        PTCLDY    62  55  77 N5        30.05S
PORT HOPE        N/A     69  59  70 VRB3      30.03S
PORT HURON     CLEAR     59  55  88 NW6       30.04R
TRI CITIES     MOCLDY    63  57  81 NW9       30.08R
MIDLAND        FAIR      57  56  97 CALM      30.08R
TROY           CLEAR     65  53  64 NW5       30.07R
SAGINAW HB     CLOUDY    64  55  72 NW3       30.06S
$$
MIZ043>046-050>051-056>058-064>065-071>073-077>080-010500-
SOUTHWEST LOWER MICHIGAN

CITY           SKY/WX    TMP DP  RH WIND       PRES   REMARKS
BATTLE CREEK   CLEAR     60  58  92 N5        30.08S
BENTON HARBOR  CLEAR     66  53  63 NE6       30.08R
BIG RAPIDS     CLOUDY    64  56  78 N5        30.10S
COLDWATER      CLEAR     62  59  91 CALM      30.07R
FREMONT        MOCLDY    59  55  85 CALM      30.11R
HOLLAND        CLEAR     65  54  67 N6        30.10R
GRAND RAPIDS   CLEAR     62  53  72 N7        30.09S
IONIA          FAIR      61  53  74 N5        30.08S
KALAMAZOO      MOCLDY    65  54  67 N5        30.08S
LUDINGTON      CLOUDY    61  57  89 CALM      30.11R
MARSHALL       MOCLDY    64  58  78 N3        30.07R
MOUNT PLEASANT PTCLDY    61  56  82 CALM      30.09R
MUSKEGON       CLEAR     65  55  70 N10       30.11R
SOUTH HAVEN    CLEAR     64  57  79 NE5       30.08S
$$
MIZ016>042-010500-
NORTHERN LOWER MICHIGAN

CITY           SKY/WX    TMP DP  RH WIND       PRES   REMARKS
ALPENA         PTCLDY    60  54  80 CALM      30.08R
BEAVER ISLAND  CLEAR     61  56  84 N8        30.14R
BELLAIRE       CLEAR     62  55  77 N5        30.12R
CADILLAC       MOCLDY    56  53  89 N3        30.12R
CHARLEVOIX     PTCLDY    64  56  74 N14G20    30.15R
FRANKFORT      MOCLDY    66  56  70 N7        30.13R
GAYLORD        CLEAR     60  52  74 VRB3      30.12R
GRAYLING       CLEAR     57  53  88 NW6       30.12S
HARBOR SPRINGS CLEAR     60  55  86 N6        30.11S
HOUGHTON LAKE  CLEAR     61  53  75 N8        30.11R
MANISTEE       CLOUDY    66  56  70 N7        30.12R
OSCODA         CLEAR     57  53  85 NW3       30.06R
PELLSTON       CLEAR     59  54  83 NW6       30.12R
ROGERS CITY    CLOUDY    64  58  78 NW13G20   30.10R
TRAVERSE CITY  CLOUDY    67  55  65 N10G16    30.11R
$$
MIZ007>008-015-010500-
EASTERN UPPER MICHIGAN

CITY           SKY/WX    TMP DP  RH WIND       PRES   REMARKS
KINROSS        CLOUDY    61  57  87 NW6       30.11S
MACKINAC ISLAN PTCLDY    59  59 100 NW9       30.10S
NEWBERRY       CLOUDY    58  57  97 NW6       30.13S
S. S. MARIE    PTCLDY    61  55  81 NW3       30.11R
MUNISING         N/A     64  58  80 N10       30.15R
$$
MIZ004>006-011>014-085-010500-
CENTRAL UPPER MICHIGAN

CITY           SKY/WX    TMP DP  RH WIND       PRES   REMARKS
MANISTIQUE     PTCLDY    56  54  92 NW6       30.14S
ESCANABA       CLOUDY    61  57  87 W3        30.17R
MENOMINEE      CLOUDY   N/A N/A N/A N6        30.18R
SAWYER-GWINN   CLOUDY    57  55  92 NW5       30.19R
$$
MIZ001>003-009>011-084-010500-
WESTERN UPPER MICHIGAN

CITY           SKY/WX    TMP DP  RH WIND       PRES   REMARKS
IRON MOUNTAIN  CLOUDY    59  53  80 CALM      30.19R
HOUGHTON       MOCLDY    57  52  83 N6        30.21R
COPPER HARBOR    N/A     63  55  75 NE16      30.19R
IRONWOOD       CLOUDY    54  53  97 CALM      30.24R
$$

ABBREVIATIONS USED IN REMARKS
   TC - TEMPERATURE IN CELSIUS
  WCI - WIND CHILL INDEX
   HX - HEAT INDEX
  VSB - VISIBILITY





USA.gov is the U.S. government's official web portal to all federal, state and local government web resources and services.